Location: Newark
(25.1987°N, 100.3705°W)
Time: 09:06:27
(UTC+00:00)

Envisat - Visible Passes

Search period start: 08 April 2020 00:00
Search period end: 18 April 2020 00:00
Orbit: 764 x 766 km, 98.1° (Epoch: 07 April)

Date Brightness Start Highest point End Pass type
(mag) Time Alt. Az. Time Alt. Az. Time Alt. Az.
08 Apr 5.9 01:35:10 10° SW 01:38:39 19° W 01:42:08 10° NW visible
11 Apr 5.6 01:23:12 10° SSW 01:27:17 25° W 01:31:24 10° NW visible
13 Apr 6.2 01:50:52 10° WSW 01:52:53 12° W 01:54:54 10° WNW visible
14 Apr 6.2 11:51:58 10° ENE 11:54:13 13° E 11:56:28 10° ESE visible
16 Apr 5.9 01:38:20 10° SW 01:41:30 17° W 01:44:42 10° WNW visible
